Weather History for Frederick, MD

Change the Weather History Date:

Monday, November 19, 2012

  Actual Average (KHGR) Record (KHGR)
Temperature  
Mean Temperature 42 °F -  
Max Temperature 53 °F 50 °F 66 °F (2001)
Min Temperature 30 °F 34 °F 19 °F (1997)
Degree Days  
Heating Degree Days 24    
Moisture  
Dew Point 35 °F    
Average Humidity 87    
Maximum Humidity 100    
Minimum Humidity 58    
Precipitation  
Precipitation 0.00 in - - ()
Sea Level Pressure  
Sea Level Pressure 30.42 in    
Wind  
Wind Speed 3 mph (NNE)    
Max Wind Speed 8 mph    
Max Gust Speed -    
Visibility 8 miles    
Events Snow    
Averages and records for this station are not official NWS values.
T = Trace of Precipitation, MM = Missing Value Source: NWS Daily Summary

Daily Weather History Graph

Daily Weather History Graph

Search for Another Location

Airport:

Trip Planner

Search our weather history database for the weather conditions in past years. The results will help you decide how hot, cold, wet, or windy it might be!

Date:

Astronomy

Nov. 19, 2012 Rise Set
Actual Time 6:58 AM EST 4:51 PM EST
Civil Twilight 6:29 AM EST 5:20 PM EST
Nautical Twilight 5:56 AM EST 5:53 PM EST
Astronomical Twilight 5:24 AM EST 6:25 PM EST
Moon 12:00 PM EST (11/19) 11:15 PM EST (11/19)
Length of Visible Light 10h 51m
Length of Day
9h 53m
Waxing Crescent, 40% of the Moon is Illuminated
Nov 19
Waxing Crescent
Nov 20
First Quarter
Nov 28
Full
Dec 6
Last Quarter
Dec 13
New

Hourly Weather History & Observations

Time (EST) Temp. Windchill Dew Point Humidity Pressure Visibility Wind Dir Wind Speed Gust Speed Precip Events Conditions
12:15 AM 39.2 °F - 35.6 °F 87% 30.54 in 10.0 mi Calm Calm - N/A   Unknown
12:35 AM 37.4 °F 34.9 °F 33.8 °F 87% 30.53 in 10.0 mi North 3.5 mph - N/A Snow Light Snow
12:55 AM 37.4 °F 33.8 °F 33.8 °F 87% 30.53 in 10.0 mi North 4.6 mph - N/A Snow Light Snow
1:15 AM 35.6 °F 31.7 °F 33.8 °F 93% 30.53 in 7.0 mi NNE 4.6 mph - N/A Snow Light Snow
1:40 AM 37.4 °F 34.9 °F 35.6 °F 93% 30.53 in 10.0 mi NNE 3.5 mph - N/A Snow Light Snow
2:00 AM 39.2 °F 37.0 °F 37.4 °F 93% 30.53 in 10.0 mi NE 3.5 mph - N/A   Unknown
2:20 AM 39.2 °F 35.0 °F 37.4 °F 93% 30.53 in 7.0 mi NNE 5.8 mph - N/A   Overcast
2:40 AM 41.0 °F 37.1 °F 35.6 °F 81% 30.52 in 10.0 mi NNE 5.8 mph - N/A   Overcast
3:05 AM 41.0 °F 37.1 °F 35.6 °F 81% 30.52 in 7.0 mi NNE 5.8 mph - N/A   Unknown
3:25 AM 41.0 °F 38.0 °F 35.6 °F 81% 30.52 in 7.0 mi NNE 4.6 mph - N/A   Overcast
3:45 AM 41.0 °F 35.8 °F 35.6 °F 81% 30.51 in 7.0 mi North 8.1 mph - N/A   Overcast
4:05 AM 41.0 °F 37.1 °F 35.6 °F 81% 30.50 in 7.0 mi North 5.8 mph - N/A   Overcast
5:30 AM 41.0 °F 37.1 °F 35.6 °F 81% 30.50 in 7.0 mi NNE 5.8 mph - N/A   Unknown
5:50 AM 41.0 °F 37.1 °F 35.6 °F 81% 30.50 in 7.0 mi NNE 5.8 mph - N/A   Overcast
6:45 AM 39.2 °F 35.9 °F 37.4 °F 93% 30.50 in 6.0 mi NE 4.6 mph - N/A   Overcast
7:46 AM 41.0 °F 38.0 °F 37.4 °F 87% 30.48 in 7.0 mi NNE 4.6 mph - N/A   Overcast
8:55 AM 42.8 °F 38.6 °F 37.4 °F 81% 30.50 in 10.0 mi NNE 6.9 mph - N/A   Overcast
9:46 AM 44.6 °F 40.2 °F 37.4 °F 76% 30.48 in 6.0 mi NNE 8.1 mph - N/A   Haze
10:59 AM 46.4 °F 42.4 °F 39.2 °F 76% 30.47 in 6.0 mi North 8.1 mph - N/A   Haze
11:48 AM 46.4 °F 42.9 °F 39.2 °F 76% 30.44 in 7.0 mi North 6.9 mph - N/A   Overcast
1:54 PM 53.6 °F - 39.2 °F 58% 30.36 in 10.0 mi North 5.8 mph - N/A   Clear
2:55 PM 53.6 °F - 39.2 °F 58% 30.36 in 10.0 mi North 3.5 mph - N/A   Clear
3:50 PM 51.8 °F - 39.2 °F 62% 30.35 in 10.0 mi Variable 3.5 mph - N/A   Clear
4:50 PM 46.4 °F - 37.4 °F 71% 30.33 in 10.0 mi Calm Calm - N/A   Clear
5:45 PM 39.2 °F - 35.6 °F 87% 30.34 in 10.0 mi Calm Calm - N/A   Clear
6:46 PM 37.4 °F - 37.4 °F 100% 30.33 in 10.0 mi Calm Calm - N/A   Clear
7:50 PM 35.6 °F - 35.6 °F 100% 30.32 in 10.0 mi Calm Calm - N/A   Clear
8:05 PM 33.8 °F - 33.8 °F 100% 30.32 in 7.0 mi Calm Calm - N/A   Clear
9:05 PM 32.0 °F - 32.0 °F 100% 30.31 in 4.0 mi Calm Calm - N/A   Clear
9:30 PM 32.0 °F - 32.0 °F 100% 30.30 in 5.0 mi Calm Calm - N/A   Clear
9:50 PM 32.0 °F - 32.0 °F 100% 30.29 in 4.0 mi Calm Calm - N/A   Clear
10:10 PM 32.0 °F - 32.0 °F 100% 30.29 in 5.0 mi Calm Calm - N/A   Clear
10:30 PM 32.0 °F - 32.0 °F 100% 30.29 in 3.0 mi Calm Calm - N/A   Clear
10:55 PM 30.2 °F - 30.2 °F 100% 30.28 in 7.0 mi Calm Calm - N/A   Clear
11:15 PM 32.0 °F - 32.0 °F 100% 30.28 in 4.0 mi Calm Calm - N/A   Clear
11:35 PM 32.0 °F - 32.0 °F 100% 30.27 in 7.0 mi Calm Calm - N/A   Clear
11:55 PM 32.0 °F - 32.0 °F 100% 30.27 in 5.0 mi Calm Calm - N/A   Clear